This is the latest recevied weather packets stored in our database for station/object W4TTU-1. If no packets are shown the sender has not sent any weather packets the latest 10 day(s).
| Time | Temp. | Humidity | Pressure | Rain* | Wind** | Luminosity | Snow |
|---|---|---|---|---|---|---|---|
| 1777540427 | 0° C | 44% | 853 hPa | 0 mm | - | - | - |
| 1777539526 | 0.56° C | 43% | 853 hPa | 0 mm | - | - | - |
| 1777538628 | 0.56° C | 44% | 853.1 hPa | 0 mm | - | - | - |
| 1777537725 | 1.11° C | 44% | 853 hPa | 0 mm | - | - | - |
| 1777536825 | 1.11° C | 43% | 853 hPa | 0 mm | - | - | - |
| 1777535924 | 1.67° C | 43% | 853.1 hPa | 0 mm | - | - | - |
| 1777535023 | 1.67° C | 43% | 853.1 hPa | 0 mm | - | - | - |
| 1777534123 | 2.22° C | 43% | 853.1 hPa | 0 mm | - | - | - |
| 1777533222 | 2.22° C | 43% | 853.1 hPa | 0 mm | - | - | - |
| 1777532322 | 2.78° C | 43% | 853 hPa | 0 mm | - | - | - |
| 1777530521 | 3.33° C | 43% | 852.9 hPa | 0 mm | - | - | - |
| 1777529620 | 3.33° C | 42% | 852.9 hPa | 0 mm | - | - | - |
| 1777528720 | 3.89° C | 42% | 852.8 hPa | 0 mm | - | - | - |
| 1777527821 | 3.89° C | 42% | 852.8 hPa | 0 mm | - | - | - |
| 1777526919 | 4.44° C | 42% | 852.8 hPa | 0 mm | - | - | - |
| 1777526018 | 5° C | 41% | 852.9 hPa | 0 mm | - | - | - |
| 1777525118 | 5° C | 41% | 852.9 hPa | 0 mm | - | - | - |
| 1777524219 | 5.56° C | 41% | 852.8 hPa | 0 mm | - | - | - |
| 1777523317 | 5.56° C | 41% | 852.9 hPa | 0 mm | - | - | - |
| 1777522416 | 6.11° C | 40% | 852.8 hPa | 0 mm | - | - | - |
| 1777521516 | 6.67° C | 40% | 852.8 hPa | 0 mm | - | - | - |
| 1777520615 | 7.22° C | 40% | 852.7 hPa | 0.25 mm | - | - | - |
| 1777519714 | 7.78° C | 40% | 852.5 hPa | 0.25 mm | - | - | - |
| 1777518814 | 8.33° C | 39% | 852.2 hPa | 0.25 mm | - | - | - |
| 1777517913 | 8.89° C | 39% | 852.2 hPa | 0.25 mm | - | - | - |
* Rain since midnight (hover to see other rain measurements)
** Current wind speed in m/s (hover to see current wind gust speed)